COSMOS 2251 DEB

Satellite information

Favourite Embed

Satellite Type and Status

DEBRISIN ORBIT

Key statistics

Satellite COSMOS 2251 DEB at a glance.

Uptime

11709

Days in orbit

Revolutions

≈ 14.4

Per day

Orbit

LEO

Low Earth Orbit

Inclination

74.1

Latest

Satellite identification and parameters

Extended collection of information and parameters for COSMOS 2251 DEB.

Object identification

Identified? True

Debris? True

Object name: COSMOS 2251 DEB

International designator: 1993-036SX

Object number (NORAD): 34454

Object ID (CCSDS): 34454

Country: COMMONWEALTH OF INDEPENDENT STATES (CIS)

Current information (Y/N): Y

RCS size: SMALL

Orbital parameters

Period: 100.103 minutes

Inclination: 74.0568 deg

SMA: 7141.541 km

Apoapsis: 789.617 km

Periapsis: 737.196 km

RAAN: 210.8815 deg

Eccentricy: 0.0036701

Argument of periapsis: 314.3937 deg

Mean anomaly: 45.4213 deg

Mean motion: 14.38516428 rev/day

Mean motion (dot): 0.00000395 rev/day2

B* drag term: 0.0001368 1/REarth

Two-line elements (TLE)

Creation date: July 6, 2025, 6:05 p.m.

Reference frame: TEME

Reference center: EARTH

Epoch: July 6, 2025, 11:13 a.m. UTC

TLE line 0: 0 COSMOS 2251 DEB

TLE line 1: 1 34454U 93036SX 25187.46750063 .00000395 00000-0 13680-3 0 9993

TLE line 2: 2 34454 74.0568 210.8815 0036701 314.3937 45.4213 14.38516428857779

Live tracking on map

Real-time ground track for satellite COSMOS 2251 DEB.

In-orbit conjunctions

A list of the most updated potential collisions computed for object COSMOS 2251 DEB.

Target Orbit TCA Probability of collision Miss distance Type
FENGYUN 1C DEB SSO 2025-04-06 03:07:31 0.0001233876 169.0 (m) DEBRIS
COSMOS 2251 DEB LEO 2025-01-22 01:43:39 0.0002939043 50.0 (m) DEBRIS
CZ-6A DEB LEO 2025-01-10 14:51:40 0.0001284842 467.0 (m) DEBRIS
ORBCOMM-X SSO 2024-12-17 06:15:15 0.0002441282 233.0 (m) PAYLOAD

Associated space launch

Military communications satellite. Destroyed in a collision with Iridium 33.

COSMOS 2251 DEB was lifted into orbit during the mission ‘Kosmos-3M | Strela-2M 51’, on board a Kosmos-3M space rocket.

The launch took place on June 16, 1993, 4:17 a.m. from 132/1 (132L).

For more information about the launch, click the button.

Launch to space Kosmos-3M | Strela-2M 51
Kosmos-3M | Strela-2M 51

Agency: N/A

Status: Launch Successful

Launch date: June 16, 1993, 4:17 a.m. UTC

Rocket: Kosmos-3M

Launch pad: 132/1 (132L)

Location: Plesetsk Cosmodrome, Russian Federation

...

Latest news about this satellite

There are no fresh news available about this satellite. Check back as we update our databases every day.


Newsletter sign-up

Weekly statistics, charts and insights to help you stay on top of the space industry.